Carnival Splendor — 3EUS — position and weather

sailwx.info

Track history (hours):
 
Tides and Currents Weather Stations Pressure Air Temp Water Temp Dewpoint Dewpoint Depression Visibility Wind Speed Wind Dir Waves Ship Positions

Carnival Splendor

Last reported at 2017-May-24 10:00 UTC. Time now 2017-May-25 03:13 UTC.
Position N 22°24' W 072°00'.

Length 289 m; draft 8.3 m.

Type: Ship. MMSI: 372808000.

Wind from 160 at 30 knots

Barometer 1018.0 mb
Air temperature 26.0 ° C
Visibility: greater than 5.4 NM
Dewpoint 23.1 ° C
Water temperature 25.0 ° C

Date/timePositionNaut miles runAvg speedWind from/ knotsBaromVisibWave heightAir tempDewpointWater temp
2017-May-24 10:00N 22°24' W 072°00'25610.2 160 / 301018.0 5.4 26.023.125.0
2017-May-23 09:00N 25°00' W 075°42'8313.0 130 / 231014.010.8 25.020.523.0
2017-May-23 02:35N 26°13' W 076°26'417.9
2017-May-23 02:20N 26°10' W 076°29'147 5.9
2017-May-22 01:17N 26°15' W 079°13'510.9
2017-May-22 00:52N 26°14' W 079°18'610.8
2017-May-22 00:19N 26°13' W 079°24'310.8
2017-May-22 00:01N 26°12' W 079°28'611.0
2017-May-21 23:30N 26°11' W 079°34'611.3
2017-May-21 23:01N 26°10' W 079°40'611.1
2017-May-21 22:31N 26°09' W 079°46'611.1
2017-May-21 22:00N 26°08' W 079°52'611.1
2017-May-21 21:30N 26°06' W 079°58'4 9.0
2017-May-21 21:00N 26°06' W 080°03'4 8.1
2017-May-21 20:31N 26°05' W 080°07'0 0.5
2017-May-21 20:00N 26°05' W 080°07'0 0.0
2017-May-21 19:30N 26°05' W 080°07'0 0.0
2017-May-21 19:00N 26°05' W 080°07'0 0.0
2017-May-21 18:27N 26°05' W 080°07'0 0.0
2017-May-21 17:50N 26°05' W 080°07'0 0.0
2017-May-21 17:29N 26°05' W 080°07'0 0.0
2017-May-21 16:59N 26°05' W 080°07'0 0.0
2017-May-21 16:26N 26°05' W 080°07'0 0.0
2017-May-21 15:53N 26°05' W 080°07'0 0.0
2017-May-21 15:19N 26°05' W 080°07'0 0.0
2017-May-21 14:58N 26°05' W 080°07'0 0.0
2017-May-21 14:28N 26°05' W 080°07'0 0.0
2017-May-21 13:22N 26°05' W 080°07'0 0.0
2017-May-21 13:00N 26°05' W 080°07'0 0.0
2017-May-21 12:30N 26°05' W 080°07'0 0.0
2017-May-21 11:57N 26°05' W 080°07'0 0.0
2017-May-21 11:24N 26°05' W 080°07'0 0.0
2017-May-21 10:50N 26°05' W 080°07'0 0.0
2017-May-21 10:29N 26°05' W 080°07'0 0.0
2017-May-21 09:56N 26°05' W 080°07'0 0.0
2017-May-21 09:29N 26°05' W 080°07'0 0.3
2017-May-21 09:00N 26°05' W 080°07'4 7.6
2017-May-21 08:30N 26°05' W 080°03'5 9.5
2017-May-21 08:01N 26°03' W 079°58'714.9
2017-May-21 07:31N 25°58' W 079°52'815.6
2017-May-21 07:01N 25°53' W 079°45'816.3
2017-May-21 06:31N 25°46' W 079°41'918.0
2017-May-21 06:01N 25°37' W 079°39'917.7
2017-May-21 05:30N 25°28' W 079°38'30716.6
2017-May-20 11:00N 21°30' W 076°06'40216.7 080 / 271018.0 5.4 26.023.125.0
2017-May-19 11:00N 15°48' W 072°24'172 3.5 090 / 351015.0 5.4 28.023.725.0
2017-May-17 10:00N 14°36' W 069°42'225 9.0 090 / 321015.010.8 26.023.126.0
2017-May-16 09:00N 18°06' W 068°18'27111.3 120 / 281017.0 27.024.126.0
2017-May-15 09:00N 21°42' W 071°12'   110 / 201016.010.8 25.022.026.0
Track history (hours):
 
Tides and Currents Weather Stations Pressure Air Temp Water Temp Dewpoint Dewpoint Depression Visibility Wind Speed Wind Dir Waves Ship Positions

Carnival Splendor

Last reported at 2017-May-24 10:00 UTC. Time now 2017-May-25 03:13 UTC.
Position N 22°24' W 072°00'.

Length 289 m; draft 8.3 m.

Type: Ship. MMSI: 372808000.

Wind from 160 at 30 knots

Barometer 1018.0 mb
Air temperature 26.0 ° C
Visibility: greater than 5.4 NM
Dewpoint 23.1 ° C
Water temperature 25.0 ° C

Date/timePositionNaut miles runAvg speedWind from/ knotsBaromVisibWave heightAir tempDewpointWater temp
2017-May-24 10:00N 22°24' W 072°00'25610.2 160 / 301018.0 5.4 26.023.125.0
2017-May-23 09:00N 25°00' W 075°42'8313.0 130 / 231014.010.8 25.020.523.0
2017-May-23 02:35N 26°13' W 076°26'417.9
2017-May-23 02:20N 26°10' W 076°29'147 5.9
2017-May-22 01:17N 26°15' W 079°13'510.9
2017-May-22 00:52N 26°14' W 079°18'610.8
2017-May-22 00:19N 26°13' W 079°24'310.8
2017-May-22 00:01N 26°12' W 079°28'611.0
2017-May-21 23:30N 26°11' W 079°34'611.3
2017-May-21 23:01N 26°10' W 079°40'611.1
2017-May-21 22:31N 26°09' W 079°46'611.1
2017-May-21 22:00N 26°08' W 079°52'611.1
2017-May-21 21:30N 26°06' W 079°58'4 9.0
2017-May-21 21:00N 26°06' W 080°03'4 8.1
2017-May-21 20:31N 26°05' W 080°07'0 0.5
2017-May-21 20:00N 26°05' W 080°07'0 0.0
2017-May-21 19:30N 26°05' W 080°07'0 0.0
2017-May-21 19:00N 26°05' W 080°07'0 0.0
2017-May-21 18:27N 26°05' W 080°07'0 0.0
2017-May-21 17:50N 26°05' W 080°07'0 0.0
2017-May-21 17:29N 26°05' W 080°07'0 0.0
2017-May-21 16:59N 26°05' W 080°07'0 0.0
2017-May-21 16:26N 26°05' W 080°07'0 0.0
2017-May-21 15:53N 26°05' W 080°07'0 0.0
2017-May-21 15:19N 26°05' W 080°07'0 0.0
2017-May-21 14:58N 26°05' W 080°07'0 0.0
2017-May-21 14:28N 26°05' W 080°07'0 0.0
2017-May-21 13:22N 26°05' W 080°07'0 0.0
2017-May-21 13:00N 26°05' W 080°07'0 0.0
2017-May-21 12:30N 26°05' W 080°07'0 0.0
2017-May-21 11:57N 26°05' W 080°07'0 0.0
2017-May-21 11:24N 26°05' W 080°07'0 0.0
2017-May-21 10:50N 26°05' W 080°07'0 0.0
2017-May-21 10:29N 26°05' W 080°07'0 0.0
2017-May-21 09:56N 26°05' W 080°07'0 0.0
2017-May-21 09:29N 26°05' W 080°07'0 0.3
2017-May-21 09:00N 26°05' W 080°07'4 7.6
2017-May-21 08:30N 26°05' W 080°03'5 9.5
2017-May-21 08:01N 26°03' W 079°58'714.9
2017-May-21 07:31N 25°58' W 079°52'815.6
2017-May-21 07:01N 25°53' W 079°45'816.3
2017-May-21 06:31N 25°46' W 079°41'918.0
2017-May-21 06:01N 25°37' W 079°39'917.7
2017-May-21 05:30N 25°28' W 079°38'30716.6
2017-May-20 11:00N 21°30' W 076°06'40216.7 080 / 271018.0 5.4 26.023.125.0
2017-May-19 11:00N 15°48' W 072°24'172 3.5 090 / 351015.0 5.4 28.023.725.0
2017-May-17 10:00N 14°36' W 069°42'225 9.0 090 / 321015.010.8 26.023.126.0
2017-May-16 09:00N 18°06' W 068°18'27111.3 120 / 281017.0 27.024.126.0
2017-May-15 09:00N 21°42' W 071°12'   110 / 201016.010.8 25.022.026.0

Dump ship's entire track history